Weather History for Trinidad, CO

Change the Weather History Date:

Thursday, February 27, 2014

  Actual Average Record
Temperature  
Mean Temperature 50 °F 38 °F  
Max Temperature 65 °F 53 °F 77 °F (1980)
Min Temperature 34 °F 23 °F -10 °F (1962)
Degree Days  
Heating Degree Days 15 27  
Month to date heating degree days 820 814  
Since 1 July heating degree days 3978 4096  
Cooling Degree Days 0 0  
Month to date cooling degree days 0 0  
Year to date cooling degree days 0 0  
Moisture  
Dew Point 18 °F    
Average Humidity 38    
Maximum Humidity 60    
Minimum Humidity 15    
Precipitation  
Precipitation 0.00 in 0.02 in 0.18 in (1990)
Month to date precipitation T 0.47  
Year to date precipitation 0.09 0.87  
Sea Level Pressure  
Sea Level Pressure 29.63 in    
Wind  
Wind Speed 16 mph (WSW)    
Max Wind Speed 35 mph    
Max Gust Speed 43 mph    
Visibility 10 miles    
Events      
T = Trace of Precipitation, MM = Missing Value Source: NWS Daily Summary

Daily Weather History Graph

Daily Weather History Graph

Search for Another Location

Airport:

Trip Planner

Search our weather history database for the weather conditions in past years. The results will help you decide how hot, cold, wet, or windy it might be!

Date:

Astronomy

Feb. 27, 2014 Rise Set
Actual Time 6:31 AM MST 5:49 PM MST
Civil Twilight 6:04 AM MST 6:15 PM MST
Nautical Twilight 5:34 AM MST 6:45 PM MST
Astronomical Twilight 5:04 AM MST 7:16 PM MST
Moon 5:03 AM MST (2/27) 4:19 PM MST (2/27)
Length of Visible Light 12h 10m
Length of Day
11h 18m
Waning Crescent, 4% of the Moon is Illuminated
Feb 27
Waning Crescent
Mar 1
New
Mar 8
First Quarter
Mar 16
Full
Mar 23
Last Quarter

Hourly Weather History & Observations

Time (MST) Temp. Windchill Dew Point Humidity Pressure Visibility Wind Dir Wind Speed Gust Speed Precip Events Conditions
12:54 AM 37.9 °F 28.5 °F 16.0 °F 41% 29.86 in 10.0 mi WSW 17.3 mph - N/A   Clear
1:54 AM 39.0 °F 29.3 °F 10.9 °F 32% 29.83 in 10.0 mi WSW 19.6 mph 25.3 mph N/A   Clear
2:54 AM 39.9 °F 30.0 °F 8.1 °F 27% 29.80 in 10.0 mi WSW 21.9 mph - N/A   Clear
3:54 AM 39.0 °F 29.6 °F 7.0 °F 27% 29.78 in 10.0 mi WSW 18.4 mph - N/A   Clear
4:54 AM 37.0 °F 27.0 °F 8.1 °F 30% 29.79 in 10.0 mi WSW 18.4 mph - N/A   Clear
5:54 AM 35.1 °F 24.8 °F 12.9 °F 40% 29.83 in 10.0 mi WSW 17.3 mph - N/A   Clear
6:54 AM 36.0 °F 25.3 °F 15.1 °F 43% 29.81 in 10.0 mi WSW 19.6 mph - N/A   Clear
7:54 AM 41.0 °F 35.8 °F 16.0 °F 36% 29.81 in 10.0 mi WNW 8.1 mph - N/A   Clear
8:54 AM 48.0 °F - 16.0 °F 28% 29.77 in 10.0 mi West 16.1 mph - N/A   Clear
9:54 AM 57.9 °F - 12.9 °F 17% 29.72 in 10.0 mi WSW 13.8 mph - N/A   Clear
10:54 AM 59.0 °F - 12.0 °F 16% 29.68 in 10.0 mi Variable 5.8 mph - N/A   Clear
11:54 AM 61.0 °F - 14.0 °F 16% 29.60 in 10.0 mi SSW 13.8 mph 17.3 mph N/A   Mostly Cloudy
12:54 PM 63.0 °F - 16.0 °F 16% 29.55 in 10.0 mi SW 12.7 mph 21.9 mph N/A   Scattered Clouds
1:54 PM 64.0 °F - 18.0 °F 17% 29.51 in 10.0 mi West 15.0 mph 20.7 mph N/A   Overcast
2:54 PM 62.1 °F - 16.0 °F 17% 29.49 in 10.0 mi West 15.0 mph - N/A   Overcast
3:54 PM 62.1 °F - 19.0 °F 19% 29.47 in 10.0 mi West 18.4 mph - N/A   Partly Cloudy
4:54 PM 55.9 °F - 24.1 °F 29% 29.49 in 10.0 mi WSW 21.9 mph 27.6 mph N/A   Clear
5:54 PM 53.1 °F - 25.0 °F 34% 29.49 in 10.0 mi West 10.4 mph - N/A   Clear
6:54 PM 53.1 °F - 24.1 °F 32% 29.50 in 10.0 mi WSW 19.6 mph - N/A   Scattered Clouds
7:54 PM 46.9 °F - 33.1 °F 59% 29.50 in 10.0 mi WSW 16.1 mph - N/A   Clear
8:54 PM 48.0 °F - 30.9 °F 52% 29.47 in 10.0 mi West 16.1 mph 27.6 mph N/A   Mostly Cloudy
9:54 PM 45.0 °F 38.9 °F 28.9 °F 53% 29.43 in 9.0 mi West 12.7 mph - N/A   Partly Cloudy
10:54 PM 46.0 °F 39.9 °F 28.9 °F 51% 29.41 in 10.0 mi WNW 13.8 mph - N/A   Mostly Cloudy
11:54 PM 44.1 °F 37.7 °F 28.0 °F 53% 29.41 in 10.0 mi West 12.7 mph - N/A   Clear